GW1539 Weather Reports


time (UTC)temp
C
wind
direction
speed
KPH
gust
KPH
rain 1hr
cm
rain 24hr
cm
rain mn
cm
humidity
%
barometer
mb
20260902151550 22 266 0.0 8.0 0.00 0.00 0.00 63 1017.1
20260902150039 23 236 1.6 16.1 0.00 0.00 0.00 61 1017.2
20260902143041 24 262 0.0 6.4 0.00 0.00 0.00 57 1017.3
20260902141536 25 251 0.0 11.3 0.00 0.00 0.00 57 1017.3
20260902134539 25 254 3.2 8.0 0.00 0.00 0.00 56 1017.6
20260902131543 24 260 3.2 14.5 0.00 0.00 0.00 59 1017.7
20260902124534 25 285 1.6 8.0 0.00 0.00 0.00 58 1017.7
20260902121539 23 241 6.4 14.5 0.00 0.00 0.00 59 1018.1
20260902115326 23 219 0.0 8.0 0.00 0.00 0.00 60 1018.4
20260902113053 23 229 4.8 8.0 0.00 0.00 0.00 62 1018.5
20260902110041 22 221 4.8 12.9 0.00 0.00 0.00 63 1018.7
20260902103058 21 224 1.6 11.3 0.00 0.00 0.00 66 1019.1
20260902101540 22 250 1.6 8.0 0.00 0.00 0.00 64 1019.2
20260902100032 22 278 1.6 8.0 0.00 0.00 0.00 67 1019.3
20260902094530 21 224 3.2 8.0 0.00 0.00 0.00 68 1019.4
20260902093026 21 344 0.0 4.8 0.00 0.00 0.00 70 1019.4
20260902090034 20 306 0.0 6.4 0.00 0.00 0.00 71 1019.7
20260902083035 19 264 0.0 4.8 0.00 0.00 0.00 75 1019.7
20260902081532 18 261 0.0 3.2 0.00 0.00 0.00 77 1019.7
20260902074550 17 252 0.0 0.0 0.00 0.00 0.00 83 1019.5
20260902071530 16 253 0.0 0.0 0.00 0.00 0.00 89 1019.5
20260902064535 14 253 0.0 0.0 0.00 0.00 0.00 96 1019.3
20260902063035 13 253 0.0 0.0 0.00 0.00 0.00 96 1019.5
20260902060036 12 252 0.0 0.0 0.00 0.00 0.00 96 1019.4
20260902054536 12 252 0.0 0.0 0.00 0.00 0.00 95 1019.1
20260902053025 11 253 0.0 0.0 0.00 0.00 0.00 95 1019.0
20260902050057 11 252 0.0 3.2 0.00 0.00 0.00 95 1018.8
20260902044535 11 252 0.0 1.6 0.00 0.00 0.00 95 1018.7
20260902041551 11 253 0.0 0.0 0.00 0.00 0.00 95 1018.8
20260902034545 12 252 0.0 1.6 0.00 0.00 0.00 95 1018.8
20260902033034 12 252 0.0 0.0 0.00 0.00 0.00 94 1019.0
20260902030037 12 252 0.0 0.0 0.00 0.00 0.00 95 1019.0
20260902024528 12 252 0.0 0.0 0.00 0.00 0.00 94 1019.1
20260902021544 12 252 0.0 0.0 0.00 0.00 0.00 95 1019.0
20260902020039 12 252 0.0 0.0 0.00 0.00 0.00 94 1019.1
20260902013039 13 252 0.0 0.0 0.00 0.00 0.00 94 1019.1
20260902010035 13 252 0.0 1.6 0.00 0.00 0.00 94 1019.2
20260902004527 13 252 0.0 0.0 0.00 0.00 0.00 94 1019.3
20260902001536 13 252 0.0 0.0 0.00 0.00 0.00 94 1019.4
20260901234549 13 252 0.0 0.0 0.00 0.00 0.00 93 1019.4
20260901231548 13 252 0.0 0.0 0.00 0.00 0.00 93 1019.3
20260901230042 13 253 0.0 0.0 0.00 0.00 0.00 93 1019.3
20260901223047 13 252 0.0 0.0 0.00 0.00 0.00 92 1019.3
20260901220134 13 253 0.0 0.0 0.00 0.00 0.00 91 1019.3
20260901214543 14 253 0.0 0.0 0.00 0.00 0.00 91 1019.2
20260901213038 14 253 0.0 0.0 0.00 0.00 0.00 91 1019.2
20260901210031 14 253 0.0 0.0 0.00 0.00 0.00 91 1019.1
20260901203036 15 253 0.0 0.0 0.00 0.00 0.00 90 1019.0
20260901200042 15 252 0.0 0.0 0.00 0.00 0.00 89 1019.1
20260901194526 15 253 0.0 0.0 0.00 0.00 0.00 89 1018.8
20260901191538 16 253 0.0 0.0 0.00 0.00 0.00 87 1018.7
20260901190048 16 252 0.0 0.0 0.00 0.00 0.00 86 1018.5
20260901184533 16 253 0.0 0.0 0.00 0.00 0.00 85 1018.4
20260901181546 17 252 0.0 0.0 0.00 0.00 0.00 81 1018.1
20260901180033 18 252 0.0 1.6 0.00 0.00 0.00 80 1017.9
20260901173032 18 253 0.0 1.6 0.00 0.00 0.00 80 1017.6
20260901171535 19 253 0.0 1.6 0.00 0.00 0.00 79 1017.5
20260901164537 21 253 0.0 4.8 0.00 0.00 0.00 74 1017.7
20260901163032 21 253 0.0 4.8 0.00 0.00 0.00 73 1017.8
20260901161530 21 253 1.6 6.4 0.00 0.00 0.00 67 1017.5
20260901154551 21 246 1.6 8.0 0.00 0.00 0.00 68 1017.8